LIM260 LICC-LMML

Flight info

Callsign LIM260
Flight time N/A
Altitude 15000
Route NELDA N982 GZO
Aircraft M600/L-SBDGRWY/SB1

Departure

Time N/A
Airport Catania-Fontanarossa Airport (LICC)

Arrival

Time 2026-05-07 12:48
Airport Malta International Airport (LMML)
Time Latitude Longitude Altitude Speed Heading
2026-05-07 12:29 36.82633 14.60830 10876 ft 158 kts 221°
2026-05-07 12:29 36.81745 14.60015 10869 ft 159 kts 220°
2026-05-07 12:29 36.80856 14.59201 10873 ft 159 kts 221°
2026-05-07 12:30 36.79972 14.58387 10874 ft 158 kts 221°
2026-05-07 12:30 36.79088 14.57577 10872 ft 158 kts 221°
2026-05-07 12:30 36.78203 14.56766 10874 ft 158 kts 221°
2026-05-07 12:30 36.77319 14.55954 10874 ft 157 kts 220°
2026-05-07 12:31 36.76436 14.55149 10876 ft 157 kts 221°
2026-05-07 12:31 36.75560 14.54339 10873 ft 156 kts 221°
2026-05-07 12:31 36.74683 14.53536 10876 ft 157 kts 221°
2026-05-07 12:31 36.73813 14.52742 10875 ft 157 kts 222°
2026-05-07 12:32 36.72871 14.52026 10872 ft 157 kts 207°
2026-05-07 12:32 36.71831 14.51615 10885 ft 160 kts 206°
2026-05-07 12:32 36.70769 14.51168 10880 ft 161 kts 206°
2026-05-07 12:32 36.69714 14.50687 10878 ft 161 kts 208°
2026-05-07 12:33 36.67605 14.49718 10873 ft 162 kts 208°
2026-05-07 12:33 36.66541 14.49227 10874 ft 163 kts 208°
2026-05-07 12:33 36.65477 14.48732 10876 ft 164 kts 207°
2026-05-07 12:34 36.64403 14.48245 10874 ft 164 kts 208°
2026-05-07 12:34 36.63335 14.47750 10875 ft 164 kts 207°
2026-05-07 12:34 36.62262 14.47250 10877 ft 165 kts 207°
2026-05-07 12:34 36.61186 14.46758 10874 ft 165 kts 208°
2026-05-07 12:35 36.60115 14.46260 10873 ft 164 kts 207°
2026-05-07 12:35 36.59041 14.45771 10874 ft 164 kts 207°
2026-05-07 12:35 36.57966 14.45280 10870 ft 165 kts 207°
2026-05-07 12:35 36.56891 14.44785 10873 ft 165 kts 208°
2026-05-07 12:36 36.55815 14.44286 10871 ft 166 kts 208°
2026-05-07 12:36 36.54732 14.43791 10868 ft 166 kts 208°
2026-05-07 12:36 36.53652 14.43290 10868 ft 166 kts 207°
2026-05-07 12:36 36.52570 14.42797 10868 ft 166 kts 208°
2026-05-07 12:37 36.51487 14.42299 10869 ft 166 kts 207°
2026-05-07 12:37 36.50406 14.41801 10867 ft 166 kts 208°
2026-05-07 12:37 36.49321 14.41306 10866 ft 166 kts 207°
2026-05-07 12:37 36.48235 14.40810 10868 ft 166 kts 207°
2026-05-07 12:38 36.47148 14.40314 10862 ft 167 kts 207°
2026-05-07 12:38 36.46059 14.39813 10862 ft 167 kts 207°
2026-05-07 12:38 36.44968 14.39311 10864 ft 167 kts 207°
2026-05-07 12:38 36.43875 14.38812 10860 ft 167 kts 207°
2026-05-07 12:39 36.42785 14.38311 10859 ft 167 kts 207°
2026-05-07 12:39 36.41692 14.37810 10860 ft 168 kts 207°
2026-05-07 12:39 36.40597 14.37310 10858 ft 168 kts 207°
2026-05-07 12:39 36.39517 14.36817 10858 ft 168 kts 207°
2026-05-07 12:40 36.38424 14.36317 10859 ft 167 kts 207°
2026-05-07 12:40 36.37331 14.35819 10859 ft 167 kts 208°
2026-05-07 12:40 36.36238 14.35317 10858 ft 168 kts 207°
2026-05-07 12:40 36.35142 14.34817 10855 ft 168 kts 207°
2026-05-07 12:41 36.34046 14.34315 10853 ft 168 kts 207°
2026-05-07 12:41 36.32952 14.33816 10855 ft 168 kts 207°
2026-05-07 12:41 36.31857 14.33318 10856 ft 167 kts 208°
2026-05-07 12:41 36.30765 14.32819 10857 ft 167 kts 208°
2026-05-07 12:42 36.29673 14.32320 10854 ft 167 kts 208°
2026-05-07 12:42 36.28647 14.31853 10855 ft 167 kts 208°
2026-05-07 12:42 36.27558 14.31354 10858 ft 167 kts 208°
2026-05-07 12:42 36.26466 14.30857 10857 ft 167 kts 207°
2026-05-07 12:43 36.25363 14.30400 10828 ft 168 kts 196°
2026-05-07 12:43 36.24207 14.30634 10834 ft 176 kts 161°
2026-05-07 12:43 36.23206 14.31698 10383 ft 212 kts 135°
2026-05-07 12:43 36.22199 14.33202 9906 ft 237 kts 140°
2026-05-07 12:44 36.20987 14.34623 9389 ft 243 kts 145°
2026-05-07 12:44 36.19688 14.35988 8838 ft 247 kts 146°
2026-05-07 12:44 36.18385 14.37366 8271 ft 241 kts 146°
2026-05-07 12:44 36.17145 14.38709 7678 ft 233 kts 145°
2026-05-07 12:45 36.15943 14.40017 7101 ft 227 kts 146°
2026-05-07 12:45 36.14764 14.41291 6548 ft 223 kts 146°
2026-05-07 12:45 36.13601 14.42545 5972 ft 221 kts 146°
2026-05-07 12:45 36.12446 14.43789 5403 ft 219 kts 146°
2026-05-07 12:46 36.11299 14.45024 4837 ft 218 kts 146°
2026-05-07 12:46 36.10159 14.46252 4276 ft 216 kts 146°
2026-05-07 12:46 36.09036 14.47463 3713 ft 212 kts 146°
2026-05-07 12:46 36.07929 14.48654 3167 ft 210 kts 145°
2026-05-07 12:47 36.06835 14.49829 2631 ft 207 kts 145°
2026-05-07 12:47 36.05755 14.50973 2111 ft 202 kts 143°
2026-05-07 12:47 36.04727 14.52098 1609 ft 197 kts 143°
2026-05-07 12:47 36.03712 14.53212 1106 ft 193 kts 143°
2026-05-07 12:48 36.02717 14.54281 639 ft 187 kts 143°
2026-05-07 12:48 36.01736 14.55318 160 ft 185 kts 143°
2026-05-07 12:48 36.01398 14.55663 3 ft 0 kts 142°